TimeCST,TemperatureF,Dew PointF,Humidity,Sea Level PressureIn,VisibilityMPH,Wind Direction,Wind SpeedMPH,Gust SpeedMPH,PrecipitationIn,Events,Conditions,WindDirDegrees,DateUTC
12:15 AM,41.0,39.2,93,30.22,10.0,East,4.6,-,N/A,,Clear,80,2013-01-23 06:15:00
12:35 AM,41.0,39.2,93,30.22,10.0,East,4.6,-,N/A,,Clear,80,2013-01-23 06:35:00
12:55 AM,41.0,39.2,93,30.22,10.0,East,6.9,-,N/A,,Clear,80,2013-01-23 06:55:00
1:15 AM,41.0,39.2,93,30.22,10.0,East,5.8,-,N/A,,Clear,80,2013-01-23 07:15:00
1:35 AM,41.0,37.4,87,30.21,10.0,ENE,3.5,-,N/A,,Clear,70,2013-01-23 07:35:00
1:55 AM,41.0,37.4,87,30.21,10.0,Calm,Calm,-,N/A,,Clear,0,2013-01-23 07:55:00
2:15 AM,39.2,37.4,93,30.22,10.0,East,3.5,-,N/A,,Clear,100,2013-01-23 08:15:00
2:35 AM,41.0,37.4,87,30.23,10.0,Calm,Calm,-,N/A,,Clear,0,2013-01-23 08:35:00
2:55 AM,39.2,35.6,87,30.23,10.0,ESE,4.6,-,N/A,,Scattered Clouds,120,2013-01-23 08:55:00
3:15 AM,37.4,35.6,93,30.23,10.0,Calm,Calm,-,N/A,,Scattered Clouds,0,2013-01-23 09:15:00
3:35 AM,37.4,35.6,93,30.22,10.0,SE,4.6,-,N/A,,Clear,130,2013-01-23 09:35:00
3:55 AM,37.4,35.6,93,30.21,10.0,SE,3.5,-,N/A,,Clear,140,2013-01-23 09:55:00
4:15 AM,37.4,35.6,93,30.21,10.0,Calm,Calm,-,N/A,,Clear,0,2013-01-23 10:15:00
4:35 AM,37.4,33.8,87,30.21,10.0,Calm,Calm,-,N/A,,Clear,0,2013-01-23 10:35:00
4:55 AM,35.6,33.8,93,30.22,10.0,Calm,Calm,-,N/A,,Clear,0,2013-01-23 10:55:00
5:15 AM,35.6,33.8,93,30.22,10.0,Calm,Calm,-,N/A,,Clear,0,2013-01-23 11:15:00
5:35 AM,35.6,33.8,93,30.22,10.0,ESE,3.5,-,N/A,,Clear,120,2013-01-23 11:35:00
10:35 PM,50.0,48.2,94,30.13,10.0,East,4.6,-,N/A,,Clear,100,2013-01-24 04:35:00
10:55 PM,51.8,50.0,94,30.13,10.0,East,5.8,-,N/A,,Clear,90,2013-01-24 04:55:00
11:15 PM,53.6,51.8,94,30.13,10.0,East,5.8,-,N/A,,Clear,80,2013-01-24 05:15:00
11:35 PM,53.6,51.8,94,30.13,10.0,East,5.8,-,N/A,,Clear,90,2013-01-24 05:35:00
11:55 PM,53.6,51.8,94,30.13,10.0,East,4.6,-,N/A,,Scattered Clouds,90,2013-01-24 05:55:00